(275814) = 2001 RJ14 = 2007 RO118

Discovered at Socorro on 2001-09-10 by LINEAR.

Orbit

Orbit type: Main Belt

Note: WebGL enabled browser required.

epoch2022-01-21.0
epoch JD2459600.5
perihelion date2018-12-14.49163
perihelion JD2458466.99163
argument of perihelion (°)175.23604
ascending node (°)192.86601
inclination (°)28.07142
eccentricity0.1466447
perihelion distance (AU)2.7077101
Tisserand w.r.t. Jupiter3.0
ΔV w.r.t. Earth (km/sec)13.5
semimajor axis (AU)3.1730159
mean anomaly (°)197.66064
mean daily motion (°/day)0.17437950
aphelion distance (AU)3.638
period (years)5.65
P-vector [x]0.98784311
P-vector [y]0.12249991
P-vector [z]0.09570664
Q-vector [x]-0.11483247
Q-vector [y]0.99000263
Q-vector [z]-0.08190419
absolute magnitude15.48
phase slope0.15
uncertainty0
referenceMPO 696694
observations used383
oppositions13
arc length (days)7558
first opposition used2001
last opposition used2022
residual rms (arc-secs)0.75
perturbers coarse indicatorM-v
perturbers precise indicator003Ek
first observation date used2001-08-22.0
last observation date used2022-05-02.0
computer namePan
JD of orbit computation2456670.786477
perihelion JD uncertainty (days)2.6517E-04
argument of perihelion uncertainty (°)5.2585E-05
ascending node uncertainty (°)1.5420E-05
inclination uncertainty (°)1.1826E-05
eccentricity uncertainty 1.1440E-07
perihelion distance uncertainty (AU)3.4732E-07
Minimum Orbit Intersection Distances (in AU)
for orbit epoch: 2459200.5, reference: E2021-B55
Mercury2.36148
Venus1.98653
Earth1.70882
Mars1.30303
Jupiter1.82276
Saturn5.97371
Uranus14.7376
Neptune26.9851

Observations

397 total observations over interval: 2001 08 22.26810 – 2022 05 27.261365
These data are available for download (format description).

Date (UT) J2000 RA J2000 Dec Magn Location Ref
2001 08 22.26810 23 17 26.05 +16 59 10.7 19.5   704 – Lincoln Laboratory ETS, New Mexico MPS 37952
2001 08 22.28042 23 17 25.71 +16 59 04.6 20.2   704 – Lincoln Laboratory ETS, New Mexico MPS 37952
2001 08 22.29274 23 17 25.34 +16 58 57.6 20.0   704 – Lincoln Laboratory ETS, New Mexico MPS 37952
2001 08 22.30504 23 17 24.97 +16 58 51.5 20.4   704 – Lincoln Laboratory ETS, New Mexico MPS 37952
2001 08 22.31735 23 17 24.55 +16 58 44.9 19.9   704 – Lincoln Laboratory ETS, New Mexico MPS 37953
2001 08 26.35077 23 15 17.88 +16 22 33.0 19.3 R 699 – Lowell Observatory-LONEOS MPS 37953
2001 08 26.38120 23 15 16.90 +16 22 15.7   699 – Lowell Observatory-LONEOS MPS 37953
2001 08 26.41171 23 15 15.78 +16 21 57.4   699 – Lowell Observatory-LONEOS MPS 37953
2001 08 26.44237 23 15 14.77 +16 21 39.8   699 – Lowell Observatory-LONEOS MPS 37953
2001 09 10.26203 23 06 21.90 +13 29 45.1 20.0   704 – Lincoln Laboratory ETS, New Mexico MPS 34977
2001 09 10.29020 23 06 20.85 +13 29 21.2 19.9   704 – Lincoln Laboratory ETS, New Mexico MPS 34977
2001 09 10.30412 23 06 20.28 +13 29 09.3 20.1   704 – Lincoln Laboratory ETS, New Mexico MPS 34977
2001 09 11.26956 23 05 44.25 +13 16 06.9 19.0   704 – Lincoln Laboratory ETS, New Mexico MPS 34977
2001 09 11.28465 23 05 43.68 +13 15 55.1 19.5   704 – Lincoln Laboratory ETS, New Mexico MPS 34977
2001 09 11.29975 23 05 43.06 +13 15 42.5 19.4   704 – Lincoln Laboratory ETS, New Mexico MPS 34977
2001 09 11.31492 23 05 42.48 +13 15 30.4 19.3   704 – Lincoln Laboratory ETS, New Mexico MPS 34977
2001 09 11.33002 23 05 41.92 +13 15 17.6 19.8   704 – Lincoln Laboratory ETS, New Mexico MPS 34977
2001 09 12.25803 23 05 07.42 +13 02 34.9 19.7   704 – Lincoln Laboratory ETS, New Mexico MPS 34977
2001 09 12.27252 23 05 06.85 +13 02 23.1 19.4   704 – Lincoln Laboratory ETS, New Mexico MPS 34977
2001 09 12.28701 23 05 06.29 +13 02 10.4 19.9   704 – Lincoln Laboratory ETS, New Mexico MPS 34977
2001 09 12.30150 23 05 05.77 +13 01 59.5 19.6   704 – Lincoln Laboratory ETS, New Mexico MPS 34977
2001 09 12.31609 23 05 05.17 +13 01 46.7 19.8   704 – Lincoln Laboratory ETS, New Mexico MPS 34977
2001 09 16.19093 23 02 43.23 +12 07 02.7 19.2   644 – Palomar Mountain/NEAT MPS 36218
2001 09 16.21241 23 02 42.45 +12 06 43.8 19.8   644 – Palomar Mountain/NEAT MPS 36218
2001 09 16.23369 23 02 41.61 +12 06 25.7 19.2   644 – Palomar Mountain/NEAT MPS 36218
2001 09 25.20009 22 57 39.19 +09 52 25.9 19.3   704 – Lincoln Laboratory ETS, New Mexico MPS 49413
2001 09 25.21496 22 57 38.69 +09 52 11.9 20.0   704 – Lincoln Laboratory ETS, New Mexico MPS 49413
2001 09 25.22972 22 57 38.21 +09 51 58.5 19.8   704 – Lincoln Laboratory ETS, New Mexico MPS 49413
2001 09 25.24509 22 57 37.75 +09 51 44.1 19.6   704 – Lincoln Laboratory ETS, New Mexico MPS 49413
2007 09 11.41618 01 48 42.48 +09 45 40.6 19.0 V G96 – Mt. Lemmon Survey MPS 216456
2007 09 11.43249 01 48 42.30 +09 45 29.0 19.6 V G96 – Mt. Lemmon Survey MPS 216456
2007 09 11.44066 01 48 42.15 +09 45 23.1 19.6 V G96 – Mt. Lemmon Survey MPS 216456
2007 09 12.40494 01 48 30.81 +09 34 06.9 19.8 V G96 – Mt. Lemmon Survey MPS 216456
2007 09 12.41860 01 48 30.63 +09 33 57.3 19.7 V G96 – Mt. Lemmon Survey MPS 216456
2007 09 12.42547 01 48 30.52 +09 33 52.5 19.6 V G96 – Mt. Lemmon Survey MPS 216456
2007 09 16.31916 01 47 32.02 +08 46 26.3 19.9   704 – Lincoln Laboratory ETS, New Mexico MPS 216456
2007 09 16.33091 01 47 31.84 +08 46 19.2 19.9   704 – Lincoln Laboratory ETS, New Mexico MPS 216456
2007 09 16.34267 01 47 31.59 +08 46 09.3 19.8   704 – Lincoln Laboratory ETS, New Mexico MPS 216456
2007 09 18.33638 01 46 54.07 +08 20 44.3 19.5 R 699 – Lowell Observatory-LONEOS MPS 216030
2007 09 18.35832 01 46 53.53 +08 20 27.2   699 – Lowell Observatory-LONEOS MPS 216030
2007 09 18.38026 01 46 53.08 +08 20 09.4   699 – Lowell Observatory-LONEOS MPS 216030
2007 09 18.40220 01 46 52.58 +08 19 52.1   699 – Lowell Observatory-LONEOS MPS 216030
2007 09 19.23988 01 46 35.59 +08 08 58.0 19.2   704 – Lincoln Laboratory ETS, New Mexico MPS 216030
2007 09 19.25183 01 46 35.29 +08 08 48.1 19.6   704 – Lincoln Laboratory ETS, New Mexico MPS 216030
2007 09 19.26383 01 46 34.92 +08 08 38.6 19.8   704 – Lincoln Laboratory ETS, New Mexico MPS 216030
2007 09 19.27578 01 46 34.75 +08 08 29.5 20.0   704 – Lincoln Laboratory ETS, New Mexico MPS 216030
2007 09 19.28781 01 46 34.57 +08 08 20.9 20.0   704 – Lincoln Laboratory ETS, New Mexico MPS 216030
2007 09 21.71255 01 45 39.44 +07 36 03.8 19.2 R D29 – Purple Mountain Observatory, XuYi Station MPS 217725
2007 09 21.72424 01 45 39.14 +07 35 54.7 19.3 R D29 – Purple Mountain Observatory, XuYi Station MPS 217725
2007 09 21.73939 01 45 38.76 +07 35 42.8 18.9 R D29 – Purple Mountain Observatory, XuYi Station MPS 217725
2007 09 21.74928 01 45 38.47 +07 35 34.3 18.6 R D29 – Purple Mountain Observatory, XuYi Station MPS 217725
2007 09 22.29417 01 45 25.36 +07 28 11.6 18.6   704 – Lincoln Laboratory ETS, New Mexico MPS 217725
2007 09 22.31848 01 45 24.65 +07 27 52.0 19.8   704 – Lincoln Laboratory ETS, New Mexico MPS 217725
2007 09 22.33055 01 45 24.41 +07 27 41.6 19.6   704 – Lincoln Laboratory ETS, New Mexico MPS 217725
2007 09 22.34264 01 45 24.05 +07 27 32.2 19.4   704 – Lincoln Laboratory ETS, New Mexico MPS 217725
2007 10 08.31771 01 36 51.21 +03 36 19.8 19.2 r 699 – Lowell Observatory-LONEOS MPS 218479
2007 10 08.33965 01 36 50.37 +03 36 00.8   699 – Lowell Observatory-LONEOS MPS 218479
2007 10 08.36158 01 36 49.48 +03 35 40.5   699 – Lowell Observatory-LONEOS MPS 218479
2007 10 08.38354 01 36 48.60 +03 35 21.4   699 – Lowell Observatory-LONEOS MPS 218479
2007 10 13.24821 01 33 40.63 +02 22 49.6 18.8   704 – Lincoln Laboratory ETS, New Mexico MPS 220238
2007 10 13.25929 01 33 40.11 +02 22 39.7 19.4   704 – Lincoln Laboratory ETS, New Mexico MPS 220238
2007 10 13.27039 01 33 39.65 +02 22 30.7 19.1   704 – Lincoln Laboratory ETS, New Mexico MPS 220238
2007 10 13.27137 01 33 39.63 +02 22 29.2 18.7 V G96 – Mt. Lemmon Survey MPS 220238
2007 10 13.27795 01 33 39.34 +02 22 22.8 18.3 V G96 – Mt. Lemmon Survey MPS 220238
2007 10 13.28148 01 33 39.22 +02 22 20.6 19.3   704 – Lincoln Laboratory ETS, New Mexico MPS 220238
2007 10 13.28454 01 33 39.09 +02 22 17.4 17.6 V G96 – Mt. Lemmon Survey MPS 220238
2007 10 13.29104 01 33 38.80 +02 22 11.3 17.7 V G96 – Mt. Lemmon Survey MPS 220238
2007 10 13.29257 01 33 38.73 +02 22 10.9 19.7   704 – Lincoln Laboratory ETS, New Mexico MPS 220238
2007 10 17.25067 01 31 02.12 +01 24 01.1 19.6 r 699 – Lowell Observatory-LONEOS MPS 220238
2007 10 17.27628 01 31 01.08 +01 23 39.1 19.4 r 699 – Lowell Observatory-LONEOS MPS 220238
2007 10 17.30188 01 30 59.98 +01 23 17.4 19.0 r 699 – Lowell Observatory-LONEOS MPS 220238
2007 10 17.32748 01 30 58.94 +01 22 54.6 18.8 r 699 – Lowell Observatory-LONEOS MPS 220238
2007 10 19.24593 01 29 43.05 +00 55 16.1 18.9   704 – Lincoln Laboratory ETS, New Mexico MPS 222401
2007 10 19.24794 01 29 43.08 +00 55 13.2 18.8 V 703 – Catalina Sky Survey MPS 222401
2007 10 19.25453 01 29 42.75 +00 55 08.7 19.2 V 703 – Catalina Sky Survey MPS 222401
2007 10 19.25664 01 29 42.61 +00 55 05.0 19.5   704 – Lincoln Laboratory ETS, New Mexico MPS 222401
2007 10 19.26111 01 29 42.46 +00 55 02.2 18.7 V 703 – Catalina Sky Survey MPS 222401
2007 10 19.26728 01 29 42.19 +00 54 56.7 19.6   704 – Lincoln Laboratory ETS, New Mexico MPS 222401
2007 10 19.26768 01 29 42.18 +00 54 56.8 18.9 V 703 – Catalina Sky Survey MPS 222401
2007 10 19.27793 01 29 41.78 +00 54 47.6 19.3   704 – Lincoln Laboratory ETS, New Mexico MPS 222401
2007 10 19.28859 01 29 41.30 +00 54 38.2 19.4   704 – Lincoln Laboratory ETS, New Mexico MPS 222401
2007 10 21.25363 01 28 24.13 +00 26 46.7 19.1 V G96 – Mt. Lemmon Survey MPS 222401
2007 10 21.25881 01 28 23.95 +00 26 42.4 19.1 V G96 – Mt. Lemmon Survey MPS 222401
2007 10 21.26396 01 28 23.73 +00 26 38.1 19.1 V G96 – Mt. Lemmon Survey MPS 222401
2007 10 21.26922 01 28 23.52 +00 26 33.8 19.0 V G96 – Mt. Lemmon Survey MPS 222401
2007 11 11.17583 01 16 52.21 -03 44 25.6 19.9 V 703 – Catalina Sky Survey MPS 226710
2007 11 11.18293 01 16 51.99 -03 44 31.0 19.8 V 703 – Catalina Sky Survey MPS 226710
